Weather History for Newport Airport, OR

Change the Weather History Date:

Wednesday, May 14, 2014

  Actual Average Record
Temperature  
Mean Temperature 71 °F -  
Max Temperature 87 °F 55 °F 87 °F (2014)
Min Temperature 55 °F 45 °F 35 °F (2007)
Cooling Degree Days 6    
Growing Degree Days 21 (Base 50)    
Moisture  
Dew Point 48 °F    
Average Humidity 46    
Maximum Humidity 77    
Minimum Humidity 24    
Precipitation  
Precipitation 0.03 in - - ()
Sea Level Pressure  
Sea Level Pressure 30.14 in    
Wind  
Wind Speed 10 mph (NE)    
Max Wind Speed 17 mph    
Max Gust Speed 23 mph    
Visibility 10 miles    
Events      
Averages and records for this station are not official NWS values.
T = Trace of Precipitation, MM = Missing Value Source: NWS Daily Summary

Daily Weather History Graph

Daily Weather History Graph

Search for Another Location

Airport:

Trip Planner

Search our weather history database for the weather conditions in past years. The results will help you decide how hot, cold, wet, or windy it might be!

Date:

Astronomy

May. 14, 2014 Rise Set
Actual Time 5:49 AM PDT 8:36 PM PDT
Civil Twilight 5:15 AM PDT 9:10 PM PDT
Nautical Twilight 4:33 AM PDT 9:53 PM PDT
Astronomical Twilight 3:43 AM PDT 10:43 PM PDT
Moon 8:47 PM PDT (5/14) 5:54 AM PDT (5/14)
Length of Visible Light 15h 54m
Length of Day
14h 46m
Full, 100% of the Moon is Illuminated
May 14
Full
May 14
Full
May 21
Last Quarter
May 28
New
Jun 5
First Quarter

Hourly Weather History & Observations

Time (PDT) Temp. Dew Point Humidity Pressure Visibility Wind Dir Wind Speed Gust Speed Precip Events Conditions
12:15 AM 55.4 °F 48.2 °F 77% 30.23 in 10.0 mi ENE 5.8 mph - N/A   Clear
12:35 AM 62.6 °F 46.4 °F 55% 30.22 in 10.0 mi ENE 8.1 mph - N/A   Clear
12:55 AM 64.4 °F 44.6 °F 49% 30.22 in 10.0 mi ENE 10.4 mph - N/A   Clear
1:15 AM 62.6 °F 46.4 °F 55% 30.22 in 10.0 mi ENE 8.1 mph - N/A   Clear
1:35 AM 59.0 °F 48.2 °F 67% 30.22 in 10.0 mi ENE 8.1 mph - N/A   Clear
1:55 AM 59.0 °F 46.4 °F 63% 30.22 in 10.0 mi NE 9.2 mph - N/A   Clear
2:15 AM 60.8 °F 46.4 °F 59% 30.22 in 10.0 mi NE 9.2 mph - N/A   Clear
2:35 AM 62.6 °F 44.6 °F 52% 30.21 in 10.0 mi ENE 9.2 mph - N/A   Clear
2:55 AM 64.4 °F 44.6 °F 49% 30.21 in 10.0 mi ENE 9.2 mph - N/A   Clear
3:15 AM 60.8 °F 46.4 °F 59% 30.21 in 10.0 mi ENE 6.9 mph - N/A   Clear
3:35 AM 62.6 °F 44.6 °F 52% 30.21 in 10.0 mi ENE 6.9 mph - N/A   Clear
4:15 AM 62.6 °F 44.6 °F 52% 30.20 in 10.0 mi ENE 6.9 mph - N/A   Clear
4:35 AM 60.8 °F 44.6 °F 55% 30.20 in 10.0 mi ENE 6.9 mph - N/A   Clear
4:55 AM 62.6 °F 44.6 °F 52% 30.20 in 10.0 mi ENE 8.1 mph - N/A   Clear
5:15 AM 62.6 °F 44.6 °F 52% 30.19 in 10.0 mi ENE 8.1 mph - N/A   Clear
5:35 AM 62.6 °F 42.8 °F 48% 30.19 in 10.0 mi East 11.5 mph - N/A   Clear
5:55 AM 64.4 °F 42.8 °F 45% 30.19 in 10.0 mi ENE 11.5 mph - N/A   Clear
6:15 AM 64.4 °F 42.8 °F 45% 30.19 in 10.0 mi ENE 10.4 mph - N/A   Clear
6:35 AM 64.4 °F 42.8 °F 45% 30.19 in 10.0 mi East 12.7 mph - N/A   Clear
6:55 AM 64.4 °F 42.8 °F 45% 30.19 in 10.0 mi East 12.7 mph - N/A   Clear
7:35 AM 68.0 °F 44.6 °F 43% 30.19 in 10.0 mi East 12.7 mph - N/A   Clear
7:55 AM 69.8 °F 44.6 °F 40% 30.19 in 10.0 mi East 13.8 mph - N/A   Clear
8:15 AM 69.8 °F 42.8 °F 38% 30.19 in 10.0 mi East 15.0 mph 19.6 mph N/A   Clear
8:35 AM 71.6 °F 42.8 °F 35% 30.19 in 10.0 mi East 17.3 mph 20.7 mph N/A   Clear
8:55 AM 71.6 °F 42.8 °F 35% 30.18 in 10.0 mi East 16.1 mph 23.0 mph N/A   Clear
9:15 AM 73.4 °F 42.8 °F 33% 30.18 in 10.0 mi East 16.1 mph - N/A   Clear
9:55 AM 75.2 °F 44.6 °F 34% 30.17 in 10.0 mi East 17.3 mph - N/A   Clear
10:15 AM 77.0 °F 44.6 °F 32% 30.17 in 10.0 mi ENE 11.5 mph - N/A   Clear
10:35 AM 78.8 °F 44.6 °F 30% 30.17 in 10.0 mi ENE 10.4 mph 16.1 mph N/A   Clear
10:55 AM 80.6 °F 44.6 °F 28% 30.17 in 10.0 mi ENE 11.5 mph 17.3 mph N/A   Clear
11:15 AM 80.6 °F 46.4 °F 30% 30.16 in 10.0 mi NE 10.4 mph - N/A   Clear
11:35 AM 82.4 °F 46.4 °F 28% 30.16 in - NE 11.5 mph - 0.03 in   Clear
11:55 AM 84.2 °F 46.4 °F 27% 30.15 in 10.0 mi NE 12.7 mph 16.1 mph 0.03 in   Clear
12:15 PM 86.0 °F 46.4 °F 25% 30.15 in 10.0 mi East 12.7 mph - N/A   Clear
12:35 PM 86.0 °F 46.4 °F 25% 30.14 in 10.0 mi ENE 9.2 mph - N/A   Clear
1:15 PM 87.8 °F 46.4 °F 24% 30.13 in 10.0 mi ENE 10.4 mph - N/A   Clear
1:35 PM 87.8 °F 48.2 °F 25% 30.12 in 10.0 mi NE 9.2 mph - N/A   Clear
1:55 PM 84.2 °F 50.0 °F 30% 30.12 in 10.0 mi NNW 6.9 mph - N/A   Clear
2:15 PM 80.6 °F 48.2 °F 32% 30.11 in 7.0 mi NNW 12.7 mph - N/A   Clear
2:35 PM 78.8 °F 50.0 °F 36% 30.11 in 7.0 mi NNW 10.4 mph - N/A   Clear
2:55 PM 78.8 °F 50.0 °F 36% 30.11 in 10.0 mi NNW 13.8 mph - N/A   Clear
3:15 PM 80.6 °F 51.8 °F 37% 30.11 in 10.0 mi NNW 12.7 mph - N/A   Clear
3:35 PM 80.6 °F 51.8 °F 37% 30.10 in 10.0 mi NNW 11.5 mph - N/A   Clear
3:55 PM 80.6 °F 51.8 °F 37% 30.10 in 10.0 mi NNW 10.4 mph - N/A   Clear
4:15 PM 80.6 °F 50.0 °F 34% 30.09 in 10.0 mi NNW 10.4 mph 18.4 mph N/A   Clear
4:35 PM 82.4 °F 48.2 °F 30% 30.08 in 10.0 mi North 11.5 mph - N/A   Clear
4:55 PM 82.4 °F 50.0 °F 32% 30.08 in 10.0 mi North 10.4 mph - N/A   Clear
5:15 PM 80.6 °F 48.2 °F 32% 30.07 in 10.0 mi North 11.5 mph - N/A   Clear
5:55 PM 80.6 °F 50.0 °F 34% 30.06 in 10.0 mi North 10.4 mph - N/A   Clear
6:15 PM 78.8 °F 51.8 °F 39% 30.06 in 10.0 mi North 10.4 mph - N/A   Clear
6:35 PM 77.0 °F 51.8 °F 41% 30.05 in 10.0 mi NNW 10.4 mph - N/A   Clear
6:55 PM 73.4 °F 53.6 °F 50% 30.05 in 10.0 mi North 6.9 mph - N/A   Clear
7:15 PM 71.6 °F 53.6 °F 53% 30.05 in 10.0 mi North 3.5 mph - N/A   Clear
7:35 PM 69.8 °F 55.4 °F 60% 30.05 in 7.0 mi NNW 3.5 mph - N/A   Clear
7:55 PM 68.0 °F 55.4 °F 64% 30.05 in 7.0 mi Calm Calm - N/A   Clear
8:15 PM 62.6 °F 53.6 °F 72% 30.07 in 5.0 mi SSW 11.5 mph - N/A   Haze
8:35 PM 62.6 °F 53.6 °F 72% 30.07 in 10.0 mi SSW 8.1 mph - N/A   Clear
9:15 PM 62.6 °F 53.6 °F 72% 30.08 in 10.0 mi South 10.4 mph - N/A   Clear
9:35 PM 62.6 °F 53.6 °F 72% 30.09 in 10.0 mi South 10.4 mph - N/A   Clear
9:55 PM 62.6 °F 51.8 °F 68% 30.10 in 10.0 mi South 10.4 mph - N/A   Clear
10:15 PM 62.6 °F 51.8 °F 68% 30.11 in 10.0 mi South 12.7 mph - N/A   Clear
10:35 PM 62.6 °F 50.0 °F 63% 30.10 in 10.0 mi South 13.8 mph - N/A   Clear
10:55 PM 62.6 °F 50.0 °F 63% 30.10 in 10.0 mi South 12.7 mph - N/A   Clear
11:15 PM 62.6 °F 50.0 °F 63% 30.10 in 10.0 mi South 10.4 mph 17.3 mph N/A   Clear
11:35 PM 62.6 °F 48.2 °F 59% 30.10 in 10.0 mi South 6.9 mph - N/A   Clear
11:55 PM 62.6 °F 48.2 °F 59% 30.09 in 10.0 mi SE 3.5 mph - N/A   Clear